This demonstration page uses our WeatherBlox Daily Observations layout. Learn more.

Left ArrowRight Arrow

Hourly Observations for December 3, 2020

Temp ( °F °C ) Dew Point ( °F °C ) Humidity (%) Winds ( mph kmh ) Pressure ( in mb ) Visibility ( mi km ) Precip ( " mm )
12:51 am 00:51 Cloudy 43 6.1 20 -6.7 40 40 SSE 10 17 30.2 1023 10 16.0934 0 0
1:51 am 01:51 Clear 41 5 18 -7.8 39 39 SSE 9 15 30.21 1023 10 16.0934 0 0
2:51 am 02:51 Mostly Clear 39 3.9 17 -8.3 41 41 SE 8 13 30.22 1023 10 16.0934 0 0
3:51 am 03:51 Clear 39 3.9 17 -8.3 41 41 SE 13 20 30.22 1023 10 16.0934 0 0
4:51 am 04:51 Clear 36 2.2 17 -8.3 46 46 SE 7 11 30.23 1024 10 16.0934 0 0
5:51 am 05:51 Clear 31 -0.6 15 -9.4 52 52 SE 5 7 30.27 1025 10 16.0934 0 0
6:51 am 06:51 Clear 29 -1.7 13 -10.6 51 51 SE 6 9 30.31 1026 10 16.0934 0 0
7:51 am 07:51 Sunny 34 1.1 14 -10 44 44 SSE 5 7 30.32 1027 10 16.0934 0 0
8:51 am 08:51 Sunny 39 3.9 15 -9.4 38 38 SSE 7 11 30.33 1027 10 16.0934 0 0
9:51 am 09:51 Sunny 43 6.1 14 -10 31 31 SSE 13 20 30.32 1027 10 16.0934 0 0
10:51 am 10:51 Sunny 46 7.8 13 -10.6 26 26 SSE 9 15 30.3 1026 10 16.0934 0 0
11:51 am 11:51 Sunny 49 9.4 13 -10.6 23 23 SSE 8 13 30.27 1025 10 16.0934 0 0
12:51 pm 12:51 Sunny 50 10 13 -10.6 22 22 Calm 30.23 1024 10 16.0934 0 0
1:51 pm 13:51 Sunny 52 11.1 12 -11.1 20 20 SSE 8 13 30.2 1023 10 16.0934 0 0
2:51 pm 14:51 Sunny 56 13.3 12 -11.1 17 17 VRB 5 7 30.17 1022 10 16.0934 0 0
3:51 pm 15:51 Sunny 65 18.3 12 -11.1 13 13 VRB 3 6 30.15 1021 10 16.0934 0 0
4:51 pm 16:51 Sunny 73 22.8 12 -11.1 9 9 SSW 8 13 30.14 1021 10 16.0934 0 0
5:51 pm 17:51 Clear 51 10.6 11 -11.7 20 20 SSE 5 7 30.21 1023 10 16.0934 0 0
6:51 pm 18:51 Clear 47 8.3 10 -12.2 22 22 ENE 3 6 30.25 1024 10 16.0934 0 0
7:51 pm 19:51 Clear 48 8.9 9 -12.8 20 20 E 6 9 30.26 1025 10 16.0934 0 0
8:51 pm 20:51 Clear 46 7.8 9 -12.8 22 22 E 8 13 30.25 1024 10 16.0934 0 0
9:51 pm 21:51 Clear 37 2.8 7 -13.9 28 28 E 7 11 30.28 1025 10 16.0934 0 0
10:51 pm 22:51 Clear 36 2.2 7 -13.9 30 30 E 7 11 30.28 1025 10 16.0934 0 0
11:51 pm 23:51 Clear 37 2.8 8 -13.3 30 30 ENE 6 9 30.26 1025 10 16.0934 0 0

Powered by AerisWeather